Regional Weather Roundup
Issued by NWS Grand Forks, ND

Home | Current Version | Previous Version | Text Only | Print | Product List | Glossary Off
Versions: 1 2 3 4 5 6 7 8 9 10 11 12 13 14 15 16 17 18 19 20 21 22 23 24 25 26 27 28 29 30 31 32 33 34 35 36 37 38 39 40 41 42 43 44 45 46 47 48 49 50

000
ASUS43 KFGF 081531
RWRFGF
PRAIRIE TO PINES  WEATHER ROUNDUP
NATIONAL WEATHER SERVICE EASTERN NORTH DAKOTA/GRAND FORKS ND
900 AM CST THU DEC 08 2016

 **SATELLITE DATA USED TO AUGMENT SKY COVER AT AUTOMATED STATIONS**
 *****  WEATHER ACROSS EASTERN NORTH DAKOTA  *****

CITY           SKY/WX    TMP DP  RH WIND       PRES   REMARKS
GRAND FORKS    LGT SNOW  15  10  80 NW23G31   30.48R BLWGSNOWWCI  -3
GRAND FRKS AFB LGT SNOW  14   9  79 NW18      30.48R WCI  -3
DEVILS LAKE    FLURRIES   4   0  83 NW22      30.51R WCI -18
FARGO          LGT SNOW  16   9  74 NW22G28   30.47R WCI  -2
WAHPETON ARPT  CLOUDY    14   9  79 NW17G25   30.49R WCI  -3
$$

 ***** WEATHER ACROSS CENTRAL AND WESTERN NORTH DAKOTA  *****

CITY           SKY/WX    TMP DP  RH WIND       PRES   REMARKS
BISMARCK       CLOUDY     0  -5  79 W12       30.63R WCI -17
MINOT          CLEAR     -2  -8  76 W17       30.60R WCI -23
JAMESTOWN      CLOUDY     4   0  83 NW25G32   30.52R FOG     WCI -19
MINOT AFB      CLEAR     -5 -10  77 NW18      30.59R WCI -28
GARRISON         N/A     -3  -9  75 NW13      30.60R WCI -22
WILLISTON      CLEAR     -5 -11  75 W9        30.67R WCI -22
DICKINSON      CLOUDY    -6 -11  79 NW18      30.56R HAZE    WCI -29
HETTINGER      CLEAR     -8 -13  78 NW15      30.58R WCI -30
$$

 *****  OTHER AIRPORT OBSERVATIONS IN OUR AREA  *****

CITY           SKY/WX    TMP DP  RH WIND       PRES   REMARKS
WALHALLA       LGT SNOW  12  12 100 NW16      30.52R WCI  -4
GRAFTON AIRPOR LGT SNOW  14  10  85 NW18G29   30.51R WCI  -3
VALLEY CITY AR FLURRIES   7   3  85 NW23      30.51R WCI -14
CANDO          CLOUDY     7   1  78 NW13      30.55R WCI  -9
CAVALIER APRT  LGT SNOW  14  10  85 NW22G29   30.51R VSB 1   WCI  -4
GWINNER        CLOUDY    12   7  79 NW21G26   30.52R WCI  -6
SHEYENNE NWR     N/A     10   2  70 NW15      29.95S WCI  -7
ROLLA          CLOUDY     1   0  92 NW23      30.50R FOG     WCI -21
 ***** THE ABOVE OBSERVATIONS ARE NON NWS ARE NOT QUALITY
       CONTROLLED AND MAY MIS-REPORT RAIN FOR SNOW...
$$

  *****  WEATHER ACROSS NORTHERN MINNESOTA  *****

CITY           SKY/WX    TMP DP  RH WIND       PRES   REMARKS
FLAG ISLAND    CLOUDY    18  12  79 N20       30.36R WCI   1
WARROAD        CLOUDY    18  12  79 N14G21    30.37R WCI   4
ROSEAU         CLOUDY    18  12  79 N14       30.39R WCI   4
HALLOCK        CLOUDY    16  12  86 NW20G25   30.46R WCI  -1
THF RVR FALLS  LGT SNOW  14  11  87 NW20      30.40R FOG     WCI  -3
BAUDETTE       LGT SNOW  20  15  81 N15G24    30.31R WCI   6
WASKISH        MOCLDY    18  14  86 NW9       30.32R WCI   6
CROOKSTON      LGT SNOW  14  12  92 N22       30.45R VSB 3/4 WCI  -4
STEPHEN NDAWN    N/A     14  12  92 NW18        N/A  WCI  -3
GREENBUSH NDAW   N/A     16  14  93 NW16        N/A  WCI   0
$$
  *****  WEATHER ACROSS CENTRAL AND WEST MINNESOTA  *****

CITY           SKY/WX    TMP DP  RH WIND       PRES   REMARKS
FOSSTON        LGT SNOW  12   9  85 NW13      30.39R WCI  -3
BEMIDJI        FLURRIES  14  10  85 NW15      30.32R WCI  -1
PARK RAPIDS    CLOUDY    14   7  73 NW12      30.32R WCI   0
ELBOW LAKE     LGT SNOW  13  10  90 NW21      30.43R WCI  -6
WADENA         FLURRIES  14   9  79 NW16G24   30.35R WCI  -2
DETROIT LAKES  LGT SNOW  16  12  86 NW15G23   30.39R VSB 1   WCI   1
MOORHEAD       MIX PCPN  14  10  85 NW20      30.47R WCI  -3
FERGUS FALLS   LGT SNOW  14  10  85 NW20      30.48R WCI  -3
MORRIS MN      CLOUDY    12   9  85 NW23G30   30.44R WCI  -7
STAPLES        LGT SNOW  16  10  79 NW14G20   30.34R WCI   1
$$
  *****  WEATHER ELSEWHERE ACROSS MINNESOTA  *****

CITY           SKY/WX    TMP DP  RH WIND       PRES   REMARKS
DULUTH         MOCLDY    20  15  81 NW14G23   30.19R WCI   7
INTRNTL FALLS  LGT SNOW  19  15  84 NW10      30.27R FOG     WCI   7
ELY            MOCLDY    18  16  93 NW8G16    30.18R WCI   7
CLOQUET        PTCLDY    19  14  79 NW10G17   30.21R WCI   8
WHEATON        CLOUDY    12   9  85 W17G26    30.51R WCI  -5
BRAINERD       CLOUDY    18  12  77 NW12      30.30R WCI   5
HIBBING        LGT SNOW  17  13  84 NW15      30.21R FOG     WCI   2
ALEXANDRIA     LGT SNOW  15  11  83 NW20G28   30.37R FOG     WCI  -2
SAINT CLOUD    PTCLDY    19  14  81 NW16      30.32R WCI   4
MINNEAPOLIS    MOSUNNY   20  14  77 NW16      30.31R WCI   6
$$

  *****  WEATHER ACROSS SOUTH DAKOTA  *****

CITY           SKY/WX    TMP DP  RH WIND       PRES   REMARKS
SIOUX FALLS    PTCLDY     9   4  80 NW22G30   30.52R WCI -11
BROOKINGS      FLURRIES   7   3  84 NW20      30.48R WCI -13
WATERTOWN      CLOUDY     7   2  80 NW18      30.48R HAZE    WCI -12
HURON          PTCLDY     7   1  76 NW18      30.60R WCI -12
SISSETON         N/A     11   4  73 NW24      30.47R WCI  -9
ABERDEEN       CLOUDY     9   1  70 NW18      30.57R WCI -10
MITCHELL       CLEAR      9   2  73 NW22G30   30.63R WCI -11
PIERRE         PTCLDY     5  -1  76 NW23      30.62R WCI -17
MOBRIDGE       CLOUDY     3  -5  69 NW18G28   30.58R WCI -17
RAPID CITY     CLEAR     -1  -9  68 CALM      30.57R
$$

  *****  SOME WEATHER IN NEARBY STATES *****

CITY           SKY/WX    TMP DP  RH WIND       PRES   REMARKS
GLASGOW MT     CLEAR     -8 -13  78 W6        30.65S WCI -21
GREAT FALLS MT CLOUDY    -3  -8  79 NE7       30.47F WCI -16
CHEYENNE WY    CLOUDY    -8 -14  74 W8        30.30S WCI -24
SCOTTSBLUFF NE CLOUDY    -6 -12  75 NW12      30.53S WCI -25
OMAHA NE       MOSUNNY   14   4  64 NW16      30.60R WCI  -2
DES MOINES IA  MOSUNNY   14   4  64 NW23G29   30.48R WCI  -5
DAVENPORT IA   PTSUNNY   15   8  73 W22G33    30.37R WCI  -3
CHICAGO IL     FLURRIES  17   9  70 W17G28    30.25R WCI   1
EAU CLAIRE WI  CLOUDY    21  16  81 W12       30.22R WCI   9
LA CROSSE WI   CLOUDY    21  14  74 NW10      30.28R WCI  10
$$

  *****  SOME NATIONAL WEATHER *****

CITY           SKY/WX    TMP DP  RH WIND       PRES   REMARKS
LA GUARDIA NY  CLOUDY    45  26  47 W5        29.97F
RALEIGH NC     CLOUDY    49  34  56 N3        30.10R
ATLANTA GA     CLOUDY    44  27  51 NW18      30.23R
NEW ORLEANS LA LGT RAIN  52  50  93 N12G20    30.33R
OKLAHOMA CITY  CLOUDY    22  11  62 N13       30.66R WCI  10
ALBUQUERQUE NM CLOUDY    24  13  62 NE3       30.38R
SALT LAKE CITY MOCLDY    23  10  57 E3        30.26F
LOS ANGELES CA MOCLDY    54  44  69 E5        30.21R
BOISE ID       CLOUDY    19  11  70 S9        30.26S WCI   8
SEATTLE WA     MOCLDY    33  12  41 E20       30.10F WCI  21
$$

*** WEATHER ACROSS MANITOBA...SASKATCHEWAN AND ONTARIO ***
                ***ONTARIO***

CITY           SKY/WX    TMP DP  RH WIND       PRES   REMARKS
GERALDTON      LGT SNOW  19  14  79 NW13G20   29.96R WCI   7
THUNDER BAY    CLOUDY    25  18  74 NW14      30.10R WCI  13
SIOUX LOOKOUT  LGT SNOW  14   9  79 NW15      30.21R DRFTSNOWWCI  -1
TORONTO        FLURRIES  30  19  64 W17G25    29.91R WCI  18
BIG TROUT LK   FLURRIES   9   5  85 NW12G24   30.22R WCI  -6
PICKLE LAKE    LGT SNOW   9   3  78 NW9G18    30.15R DRFTSNOWWCI  -5
DRYDEN         FLURRIES  14  12  92 NW12G18   30.23R WCI   0
KENORA         FLURRIES  14   9  79 N14G21    30.31R WCI  -1
$$
                *** MANITOBA***

CITY           SKY/WX    TMP DP  RH WIND       PRES   REMARKS
BRANDON        PTCLDY     1  -4  78 W12       30.55R WCI -15
DAUPHIN        FLURRIES   9   5  85 N6        30.58S WCI  -1
ISLAND LAKE    FLURRIES   1  -2  85 N10G21    30.46R WCI -14
PILOT MOUND      N/A      7   3  85 NW17        N/A  WCI -12
THE PAS        FLURRIES  -6 -11  77 N13G21    30.64R WCI -25
THOMPSON       MOCLDY   -15 -20  76 NW7       30.61R WCI -31
WINNIPEG       FLURRIES  14  10  85 NW20      30.49R WCI  -3
LYNN LAKE      CLEAR    -18 -24  76 NW7       30.66R WCI -35
CHURCHILL      SNOW      -4  -6  92 NW23G33   30.52R VSB 1/2 WCI -29
GILLAM         PTCLDY   -15 -22  70 NW13      30.55S WCI -37
$$
                ***SASKATCHEWAN***

CITY           SKY/WX    TMP DP  RH WIND       PRES   REMARKS
ESTEVAN        CRYSTALS -11 -15  84 W14       30.61R WCI -33
KINDERSLEY     MOCLDY    -9 -15  77 N10       30.65R WCI -28
LLOYDMINSTER   CRYSTALS -15 -20  76 NW5       30.67S WCI -27
PRINCE ALBERT  MOCLDY    -8 -13  77 NW9       30.69R WCI -25
REGINA         FLURRIES  -2  -8  78 NW16      30.62S WCI -23
YORKTON        CLOUDY     1  -4  78 NW14G20   30.57R WCI -17
N. BATTLEFORD  CLEAR    -13 -18  77 NW7       30.72S WCI -29
LA RONGE       FLURRIES -13 -18  77 NW5       30.72S WCI -25
SASKATOON      CRYSTALS  -9 -13  84 NW8       30.70R WCI -26
SWIFT CURRENT  CLOUDY   -11 -15  84 W10       30.57S WCI -30
$$
NOTE: THESE ARE AUTOMATED STATIONS WITH LIMITED QUALITY CONTROL
      "FAIR" INDICATES FEW OR NO CLOUDS BELOW 12,000 FEET WITH NO
      SIGNIFICANT WEATHER AND/OR OBSTRUCTIONS TO VISIBILITY.
      SKY/WX - SKY CONDITION AND SIGNIFICANT WEATHER.
      TMP - AIR TEMPERATURE.    DP   - DEWPOINT TEMPERATURE.
      RH  - RELATIVE HUMIDITY.  PRES - PRESSURE.
      HX  - HEAT INDEX.         WCI  - WIND CHILL INDEX.
$



USA.gov is the U.S. government's official web portal to all federal, state and local government web resources and services.